| time (UTC) | temp C | wind direction | speed KPH | gust KPH | rain 1hr cm | rain 24hr cm | rain mn cm | humidity % | barometer mb |
| 20260507050815 | 8 | 218 | 8.0 | 22.5 | 0.00 | 0.58 | 0.00 | 92 | 1004.9 |
| 20260507050330 | 8 | 259 | 8.0 | 22.5 | 0.00 | 0.58 | 0.00 | 92 | 1004.8 |
| 20260507045826 | 8 | 237 | 8.0 | 16.1 | 0.00 | 0.58 | 0.00 | 93 | 1005.0 |
| 20260507045321 | 8 | 261 | 8.0 | 16.1 | 0.00 | 0.58 | 0.00 | 92 | 1004.8 |
| 20260507044817 | 8 | 284 | 6.4 | 12.9 | 0.00 | 0.58 | 0.00 | 93 | 1004.9 |
| 20260507044313 | 8 | 235 | 4.8 | 14.5 | 0.00 | 0.58 | 0.00 | 92 | 1004.9 |
| 20260507043812 | 9 | 257 | 8.0 | 20.9 | 0.00 | 0.58 | 0.00 | 92 | 1004.8 |
| 20260507043348 | 9 | 254 | 8.0 | 20.9 | 0.00 | 0.58 | 0.00 | 92 | 1004.8 |
| 20260507042822 | 9 | 235 | 9.7 | 19.3 | 0.00 | 0.58 | 0.00 | 92 | 1005.0 |
| 20260507042318 | 9 | 262 | 6.4 | 17.7 | 0.00 | 0.58 | 0.00 | 92 | 1004.8 |
| 20260507041814 | 9 | 248 | 11.3 | 17.7 | 0.00 | 0.58 | 0.00 | 93 | 1004.7 |
| 20260507041349 | 9 | 277 | 9.7 | 24.1 | 0.00 | 0.58 | 0.00 | 93 | 1004.8 |
| 20260507040823 | 9 | 234 | 9.7 | 20.9 | 0.00 | 0.58 | 0.00 | 93 | 1004.8 |
| 20260507040319 | 9 | 253 | 8.0 | 14.5 | 0.00 | 0.58 | 0.00 | 93 | 1004.8 |
| 20260507035815 | 10 | 262 | 3.2 | 19.3 | 0.00 | 0.58 | 0.00 | 93 | 1004.6 |
| 20260507035314 | 10 | 252 | 8.0 | 20.9 | 0.00 | 0.58 | 0.00 | 92 | 1004.7 |
| 20260507034850 | 10 | 271 | 6.4 | 24.1 | 0.00 | 0.58 | 0.00 | 93 | 1004.7 |
| 20260507034325 | 10 | 266 | 8.0 | 24.1 | 0.00 | 0.58 | 0.00 | 93 | 1004.7 |
| 20260507033818 | 10 | 236 | 6.4 | 14.5 | 0.00 | 0.58 | 0.00 | 93 | 1004.7 |
| 20260507033314 | 10 | 247 | 9.7 | 16.1 | 0.00 | 0.58 | 0.00 | 93 | 1004.7 |
| 20260507032829 | 10 | 245 | 9.7 | 19.3 | 0.03 | 0.58 | 0.00 | 93 | 1004.8 |
| 20260507032325 | 10 | 238 | 9.7 | 20.9 | 0.03 | 0.58 | 0.58 | 93 | 1004.7 |
| 20260507031821 | 10 | 224 | 11.3 | 20.9 | 0.03 | 0.58 | 0.58 | 93 | 1004.8 |
| 20260507031321 | 10 | 244 | 12.9 | 19.3 | 0.03 | 0.58 | 0.58 | 92 | 1004.7 |
| 20260507030817 | 10 | 240 | 12.9 | 19.3 | 0.03 | 0.58 | 0.58 | 92 | 1004.7 |
| 20260507030312 | 11 | 228 | 8.0 | 24.1 | 0.03 | 0.58 | 0.58 | 92 | 1004.6 |
| 20260507025827 | 11 | 252 | 12.9 | 24.1 | 0.03 | 0.58 | 0.58 | 92 | 1004.8 |
| 20260507025323 | 11 | 260 | 11.3 | 22.5 | 0.03 | 0.58 | 0.58 | 91 | 1004.6 |
| 20260507024818 | 11 | 286 | 8.0 | 20.9 | 0.03 | 0.58 | 0.58 | 92 | 1004.4 |
| 20260507024313 | 12 | 265 | 3.2 | 14.5 | 0.03 | 0.58 | 0.58 | 92 | 1004.3 |
| 20260507023848 | 12 | 245 | 3.2 | 14.5 | 0.03 | 0.58 | 0.58 | 92 | 1004.2 |
| 20260507023343 | 12 | 226 | 4.8 | 14.5 | 0.03 | 0.58 | 0.58 | 92 | 1004.2 |
| 20260507022820 | 12 | 234 | 6.4 | 9.7 | 0.00 | 0.56 | 0.56 | 92 | 1004.2 |
| 20260507022316 | 12 | 239 | 3.2 | 14.5 | 0.00 | 0.56 | 0.56 | 93 | 1004.2 |
| 20260507021852 | 12 | 226 | 9.7 | 14.5 | 0.00 | 0.56 | 0.56 | 92 | 1004.2 |
| 20260507021326 | 12 | 237 | 6.4 | 16.1 | 0.00 | 0.56 | 0.56 | 92 | 1004.1 |
| 20260507020822 | 13 | 235 | 3.2 | 12.9 | 0.00 | 0.56 | 0.56 | 92 | 1004.1 |
| 20260507020338 | 13 | 233 | 6.4 | 19.3 | 0.03 | 0.56 | 0.56 | 93 | 1004.2 |
| 20260507015812 | 13 | 235 | 6.4 | 16.1 | 0.03 | 0.56 | 0.56 | 93 | 1004.1 |
| 20260507015348 | 13 | 255 | 8.0 | 14.5 | 0.03 | 0.56 | 0.56 | 93 | 1004.2 |
| 20260507014822 | 13 | 252 | 4.8 | 9.7 | 0.03 | 0.56 | 0.56 | 93 | 1004.0 |
| 20260507014337 | 13 | 222 | 4.8 | 11.3 | 0.03 | 0.56 | 0.56 | 93 | 1004.0 |
| 20260507013815 | 13 | 242 | 1.6 | 11.3 | 0.03 | 0.56 | 0.56 | 93 | 1004.0 |
| 20260507013329 | 13 | 271 | 4.8 | 11.3 | 0.03 | 0.56 | 0.56 | 93 | 1004.0 |
| 20260507012821 | 14 | 247 | 3.2 | 12.9 | 0.03 | 0.56 | 0.56 | 93 | 1004.1 |
| 20260507012314 | 14 | 253 | 6.4 | 14.5 | 0.03 | 0.56 | 0.56 | 93 | 1004.0 |
| 20260507011828 | 14 | 263 | 4.8 | 17.7 | 0.03 | 0.56 | 0.56 | 93 | 1004.0 |
| 20260507011342 | 14 | 270 | 6.4 | 17.7 | 0.03 | 0.56 | 0.56 | 93 | 1004.0 |
| 20260507010852 | 15 | 256 | 9.7 | 22.5 | 0.03 | 0.56 | 0.56 | 93 | 1003.9 |
| 20260507010325 | 15 | 238 | 8.0 | 17.7 | 0.00 | 0.53 | 0.53 | 93 | 1004.0 |
| 20260507005816 | 15 | 275 | 9.7 | 20.9 | 0.00 | 0.53 | 0.53 | 93 | 1004.0 |
| 20260507005315 | 15 | 280 | 6.4 | 14.5 | 0.00 | 0.53 | 0.53 | 92 | 1003.9 |
| 20260507004847 | 15 | 251 | 4.8 | 16.1 | 0.00 | 0.53 | 0.53 | 92 | 1003.8 |
| 20260507004318 | 15 | 240 | 8.0 | 16.1 | 0.00 | 0.53 | 0.53 | 92 | 1003.8 |
| 20260507003829 | 15 | 238 | 6.4 | 16.1 | 0.00 | 0.53 | 0.53 | 92 | 1003.7 |
| 20260507003321 | 15 | 249 | 8.0 | 20.9 | 0.00 | 0.53 | 0.53 | 92 | 1003.7 |
| 20260507002815 | 15 | 250 | 6.4 | 20.9 | 0.00 | 0.53 | 0.53 | 92 | 1003.7 |
| 20260507002331 | 15 | 227 | 8.0 | 19.3 | 0.00 | 0.53 | 0.53 | 92 | 1003.6 |
| 20260507001825 | 15 | 237 | 6.4 | 20.9 | 0.00 | 0.53 | 0.53 | 92 | 1003.5 |
| 20260507001321 | 15 | 235 | 9.7 | 20.9 | 0.00 | 0.53 | 0.53 | 92 | 1003.6 |
| 20260507000832 | 15 | 249 | 12.9 | 22.5 | 0.00 | 0.53 | 0.53 | 92 | 1003.5 |
| 20260507000321 | 15 | 238 | 9.7 | 22.5 | 0.00 | 0.53 | 0.53 | 91 | 1003.5 |
| 20260506235812 | 15 | 228 | 8.0 | 22.5 | 0.00 | 0.53 | 0.53 | 91 | 1003.5 |
| 20260506235327 | 15 | 235 | 6.4 | 24.1 | 0.00 | 0.53 | 0.53 | 91 | 1003.4 |
| 20260506234823 | 15 | 195 | 9.7 | 24.1 | 0.00 | 0.53 | 0.53 | 91 | 1003.3 |
| 20260506234318 | 15 | 251 | 8.0 | 20.9 | 0.00 | 0.53 | 0.53 | 91 | 1003.3 |
| 20260506233833 | 15 | 235 | 4.8 | 22.5 | 0.00 | 0.53 | 0.53 | 91 | 1003.3 |
| 20260506233347 | 15 | 221 | 11.3 | 22.5 | 0.00 | 0.53 | 0.53 | 91 | 1003.4 |
| 20260506232822 | 15 | 225 | 6.4 | 20.9 | 0.00 | 0.53 | 0.53 | 91 | 1003.3 |
| 20260506232341 | 15 | 232 | 8.0 | 20.9 | 0.00 | 0.58 | 0.53 | 90 | 1003.3 |
| 20260506231816 | 15 | 242 | 9.7 | 30.6 | 0.00 | 0.58 | 0.53 | 90 | 1003.4 |
| 20260506231313 | 15 | 222 | 6.4 | 30.6 | 0.00 | 0.58 | 0.53 | 90 | 1003.3 |
| 20260506230827 | 15 | 249 | 11.3 | 22.5 | 0.00 | 0.58 | 0.53 | 90 | 1003.4 |
| 20260506230323 | 15 | 223 | 12.9 | 22.5 | 0.00 | 0.58 | 0.53 | 90 | 1003.4 |
| 20260506225819 | 15 | 223 | 8.0 | 20.9 | 0.00 | 0.58 | 0.53 | 91 | 1003.4 |
| 20260506225314 | 15 | 218 | 14.5 | 25.7 | 0.00 | 0.58 | 0.53 | 91 | 1003.5 |
| 20260506224813 | 16 | 230 | 9.7 | 25.7 | 0.00 | 0.58 | 0.53 | 91 | 1003.5 |
| 20260506224328 | 16 | 225 | 14.5 | 20.9 | 0.00 | 0.58 | 0.53 | 91 | 1003.5 |
| 20260506223844 | 16 | 232 | 6.4 | 25.7 | 0.00 | 0.58 | 0.53 | 91 | 1003.5 |
| 20260506223318 | 16 | 240 | 6.4 | 24.1 | 0.00 | 0.58 | 0.53 | 91 | 1003.6 |
| 20260506222814 | 16 | 234 | 8.0 | 16.1 | 0.00 | 0.58 | 0.53 | 91 | 1003.6 |
| 20260506222329 | 16 | 233 | 8.0 | 17.7 | 0.00 | 0.58 | 0.53 | 91 | 1003.6 |
| 20260506221845 | 16 | 241 | 3.2 | 17.7 | 0.00 | 0.58 | 0.53 | 91 | 1003.5 |
| 20260506221318 | 16 | 229 | 9.7 | 19.3 | 0.00 | 0.58 | 0.53 | 92 | 1003.5 |
| 20260506220813 | 16 | 229 | 4.8 | 22.5 | 0.00 | 0.58 | 0.53 | 92 | 1003.7 |
| 20260506220313 | 16 | 264 | 9.7 | 22.5 | 0.00 | 0.58 | 0.53 | 92 | 1003.8 |
| 20260506215846 | 16 | 247 | 1.6 | 14.5 | 0.00 | 0.58 | 0.53 | 92 | 1003.7 |
| 20260506215320 | 16 | 237 | 3.2 | 17.7 | 0.00 | 0.58 | 0.53 | 92 | 1003.7 |
| 20260506214816 | 16 | 238 | 4.8 | 24.1 | 0.00 | 0.58 | 0.53 | 92 | 1003.7 |
| 20260506214332 | 16 | 210 | 8.0 | 24.1 | 0.00 | 0.58 | 0.53 | 92 | 1003.8 |
| 20260506213827 | 16 | 237 | 6.4 | 17.7 | 0.00 | 0.58 | 0.53 | 92 | 1003.8 |
| 20260506213323 | 16 | 228 | 9.7 | 17.7 | 0.03 | 0.58 | 0.53 | 92 | 1003.9 |
| 20260506212819 | 16 | 254 | 4.8 | 19.3 | 0.03 | 0.58 | 0.53 | 92 | 1004.0 |
| 20260506212318 | 16 | 230 | 8.0 | 19.3 | 0.03 | 0.58 | 0.53 | 92 | 1004.1 |
| 20260506211813 | 16 | 229 | 6.4 | 17.7 | 0.08 | 0.58 | 0.53 | 92 | 1004.2 |
| 20260506211328 | 16 | 233 | 3.2 | 19.3 | 0.13 | 0.58 | 0.53 | 92 | 1004.2 |
| 20260506210824 | 16 | 240 | 8.0 | 19.3 | 0.13 | 0.58 | 0.53 | 92 | 1004.2 |
| 20260506210320 | 16 | 248 | 6.4 | 16.1 | 0.15 | 0.58 | 0.53 | 93 | 1004.3 |
| 20260506205815 | 16 | 252 | 4.8 | 11.3 | 0.18 | 0.58 | 0.53 | 93 | 1004.3 |
| 20260506205331 | 16 | 250 | 3.2 | 14.5 | 0.20 | 0.58 | 0.53 | 93 | 1004.4 |
| 20260506204831 | 15 | 249 | 6.4 | 14.5 | 0.20 | 0.58 | 0.53 | 93 | 1004.4 |
| 20260506204326 | 15 | 248 | 1.6 | 4.8 | 0.23 | 0.58 | 0.53 | 93 | 1004.5 |
| 20260506203820 | 15 | 249 | 3.2 | 8.0 | 0.23 | 0.58 | 0.53 | 93 | 1004.6 |
| 20260506203315 | 15 | 228 | 3.2 | 9.7 | 0.20 | 0.56 | 0.51 | 93 | 1004.6 |
| 20260506202831 | 15 | 237 | 1.6 | 6.4 | 0.20 | 0.56 | 0.51 | 93 | 1004.7 |
| 20260506202327 | 15 | 236 | 1.6 | 9.7 | 0.20 | 0.56 | 0.51 | 93 | 1004.7 |
| 20260506201823 | 16 | 237 | 1.6 | 6.4 | 0.15 | 0.51 | 0.46 | 93 | 1004.7 |
| 20260506201339 | 16 | 257 | 3.2 | 9.7 | 0.10 | 0.46 | 0.41 | 93 | 1004.8 |
| 20260506200838 | 16 | 233 | 3.2 | 9.7 | 0.10 | 0.46 | 0.41 | 93 | 1004.7 |
| 20260506200331 | 16 | 234 | 1.6 | 11.3 | 0.08 | 0.43 | 0.38 | 92 | 1004.6 |
| 20260506195827 | 16 | 240 | 3.2 | 11.3 | 0.05 | 0.41 | 0.36 | 92 | 1004.7 |
| 20260506195323 | 16 | 238 | 3.2 | 9.7 | 0.03 | 0.38 | 0.33 | 92 | 1004.7 |
| 20260506194819 | 16 | 225 | 3.2 | 17.7 | 0.03 | 0.38 | 0.33 | 92 | 1004.8 |
| 20260506194315 | 16 | 233 | 4.8 | 14.5 | 0.00 | 0.36 | 0.30 | 92 | 1004.7 |
| 20260506193832 | 16 | 226 | 6.4 | 16.1 | 0.00 | 0.36 | 0.30 | 92 | 1004.8 |
| 20260506193312 | 16 | 239 | 6.4 | 17.7 | 0.03 | 0.36 | 0.30 | 92 | 1005.1 |
| 20260506192829 | 16 | 242 | 11.3 | 17.7 | 0.05 | 0.36 | 0.30 | 92 | 1005.3 |
| 20260506192326 | 16 | 227 | 6.4 | 22.5 | 0.05 | 0.36 | 0.30 | 92 | 1005.2 |
| 20260506191823 | 16 | 249 | 8.0 | 22.5 | 0.08 | 0.36 | 0.30 | 92 | 1005.2 |
| 20260506191339 | 16 | 237 | 4.8 | 16.1 | 0.10 | 0.36 | 0.30 | 92 | 1005.3 |
| 20260506190814 | 16 | 241 | 9.7 | 17.7 | 0.13 | 0.36 | 0.30 | 91 | 1005.4 |
| 20260506190331 | 16 | 259 | 6.4 | 19.3 | 0.13 | 0.36 | 0.30 | 92 | 1005.5 |
| 20260506185827 | 16 | 244 | 6.4 | 12.9 | 0.15 | 0.36 | 0.30 | 92 | 1005.4 |
| 20260506185327 | 16 | 234 | 6.4 | 14.5 | 0.18 | 0.36 | 0.30 | 91 | 1005.3 |
| 20260506184823 | 16 | 237 | 6.4 | 14.5 | 0.18 | 0.36 | 0.30 | 92 | 1005.3 |
| 20260506184319 | 16 | 237 | 4.8 | 12.9 | 0.20 | 0.36 | 0.30 | 91 | 1005.4 |
| 20260506183814 | 16 | 236 | 4.8 | 12.9 | 0.20 | 0.36 | 0.30 | 91 | 1005.6 |
| 20260506183330 | 16 | 245 | 6.4 | 12.9 | 0.20 | 0.33 | 0.28 | 91 | 1005.6 |
| 20260506182827 | 16 | 228 | 8.0 | 14.5 | 0.20 | 0.30 | 0.25 | 91 | 1005.7 |
| 20260506182324 | 16 | 247 | 6.4 | 14.5 | 0.20 | 0.30 | 0.25 | 91 | 1005.6 |
| 20260506181825 | 16 | 235 | 8.0 | 12.9 | 0.20 | 0.28 | 0.23 | 90 | 1005.8 |
| 20260506181322 | 16 | 234 | 6.4 | 12.9 | 0.20 | 0.25 | 0.20 | 91 | 1006.0 |
| 20260506180817 | 16 | 240 | 1.6 | 12.9 | 0.18 | 0.23 | 0.18 | 90 | 1006.0 |
| 20260506180312 | 16 | 243 | 3.2 | 6.4 | 0.18 | 0.23 | 0.18 | 90 | 1005.9 |
| 20260506175828 | 16 | 237 | 3.2 | 6.4 | 0.15 | 0.20 | 0.15 | 90 | 1006.0 |
| 20260506175343 | 16 | 242 | 3.2 | 6.4 | 0.13 | 0.18 | 0.13 | 89 | 1006.1 |
| 20260506174838 | 16 | 244 | 3.2 | 12.9 | 0.13 | 0.18 | 0.13 | 88 | 1006.0 |
| 20260506174333 | 17 | 234 | 3.2 | 11.3 | 0.10 | 0.15 | 0.10 | 87 | 1006.1 |
| 20260506173828 | 17 | 257 | 3.2 | 11.3 | 0.10 | 0.15 | 0.10 | 86 | 1005.9 |
| 20260506173328 | 17 | 263 | 3.2 | 11.3 | 0.08 | 0.13 | 0.08 | 85 | 1006.0 |
| 20260506172824 | 17 | 230 | 6.4 | 11.3 | 0.05 | 0.10 | 0.05 | 83 | 1006.0 |
| 20260506172340 | 18 | 244 | 3.2 | 11.3 | 0.05 | 0.10 | 0.05 | 81 | 1005.8 |
| 20260506171815 | 18 | 240 | 3.2 | 14.5 | 0.03 | 0.08 | 0.03 | 79 | 1005.8 |
| 20260506171332 | 18 | 235 | 8.0 | 22.5 | 0.00 | 0.05 | 0.00 | 75 | 1005.8 |
| 20260506170828 | 19 | 232 | 11.3 | 22.5 | 0.00 | 0.05 | 0.00 | 73 | 1005.7 |
| 20260506170323 | 19 | 240 | 6.4 | 12.9 | 0.00 | 0.05 | 0.00 | 72 | 1005.7 |
| 20260506165819 | 19 | 235 | 4.8 | 12.9 | 0.00 | 0.05 | 0.00 | 72 | 1005.7 |
| 20260506165319 | 19 | 238 | 8.0 | 12.9 | 0.00 | 0.05 | 0.00 | 72 | 1005.8 |
| 20260506164836 | 19 | 244 | 3.2 | 16.1 | 0.00 | 0.05 | 0.00 | 73 | 1005.9 |
| 20260506164351 | 18 | 228 | 3.2 | 16.1 | 0.00 | 0.05 | 0.00 | 74 | 1005.9 |
| 20260506163825 | 18 | 247 | 3.2 | 14.5 | 0.00 | 0.05 | 0.00 | 74 | 1005.9 |
| 20260506163321 | 18 | 235 | 1.6 | 9.7 | 0.00 | 0.05 | 0.00 | 75 | 1006.1 |
| 20260506162817 | 18 | 227 | 3.2 | 8.0 | 0.00 | 0.05 | 0.00 | 75 | 1006.3 |
| 20260506162313 | 18 | 233 | 3.2 | 6.4 | 0.00 | 0.05 | 0.00 | 75 | 1006.4 |
| 20260506161849 | 18 | 258 | 1.6 | 6.4 | 0.00 | 0.05 | 0.00 | 75 | 1006.6 |
| 20260506161344 | 18 | 235 | 1.6 | 12.9 | 0.00 | 0.05 | 0.00 | 76 | 1006.9 |
| 20260506160822 | 18 | 237 | 1.6 | 12.9 | 0.00 | 0.05 | 0.00 | 75 | 1007.1 |
| 20260506160318 | 18 | 237 | 1.6 | 8.0 | 0.00 | 0.05 | 0.00 | 76 | 1007.3 |
| 20260506155814 | 18 | 237 | 3.2 | 8.0 | 0.00 | 0.05 | 0.00 | 75 | 1007.3 |
| 20260506155330 | 18 | 233 | 1.6 | 3.2 | 0.00 | 0.05 | 0.00 | 76 | 1007.5 |
| 20260506154826 | 17 | 233 | 0.0 | 8.0 | 0.00 | 0.05 | 0.00 | 77 | 1007.5 |
| 20260506154342 | 17 | 233 | 1.6 | 8.0 | 0.00 | 0.05 | 0.00 | 76 | 1007.5 |
| 20260506153837 | 17 | 240 | 1.6 | 8.0 | 0.00 | 0.05 | 0.00 | 76 | 1007.7 |
| 20260506153312 | 17 | 245 | 3.2 | 11.3 | 0.00 | 0.05 | 0.00 | 76 | 1007.7 |
| 20260506152812 | 17 | 237 | 4.8 | 12.9 | 0.00 | 0.05 | 0.00 | 76 | 1007.7 |
| 20260506152349 | 17 | 239 | 8.0 | 12.9 | 0.00 | 0.05 | 0.00 | 76 | 1007.8 |
| 20260506151824 | 17 | 233 | 6.4 | 11.3 | 0.00 | 0.05 | 0.00 | 76 | 1007.7 |
| 20260506151320 | 17 | 233 | 4.8 | 9.7 | 0.00 | 0.05 | 0.00 | 76 | 1007.6 |
| 20260506150816 | 17 | 235 | 4.8 | 9.7 | 0.00 | 0.05 | 0.00 | 76 | 1007.6 |
| 20260506150312 | 17 | 233 | 3.2 | 17.7 | 0.00 | 0.05 | 0.00 | 76 | 1007.7 |
| 20260506145848 | 17 | 240 | 9.7 | 17.7 | 0.00 | 0.05 | 0.00 | 76 | 1007.7 |
| 20260506145323 | 17 | 228 | 6.4 | 17.7 | 0.00 | 0.05 | 0.00 | 76 | 1007.8 |
| 20260506144819 | 17 | 249 | 3.2 | 11.3 | 0.00 | 0.05 | 0.00 | 77 | 1007.7 |
| 20260506144319 | 17 | 239 | 3.2 | 16.1 | 0.00 | 0.05 | 0.00 | 76 | 1007.5 |
| 20260506143814 | 17 | 240 | 8.0 | 16.1 | 0.00 | 0.05 | 0.00 | 76 | 1007.6 |
| 20260506143330 | 17 | 252 | 6.4 | 14.5 | 0.00 | 0.05 | 0.00 | 77 | 1007.7 |
| 20260506142846 | 17 | 240 | 3.2 | 11.3 | 0.00 | 0.05 | 0.00 | 77 | 1007.5 |
| 20260506142321 | 17 | 261 | 6.4 | 12.9 | 0.00 | 0.05 | 0.00 | 77 | 1007.5 |
| 20260506141817 | 17 | 236 | 4.8 | 17.7 | 0.00 | 0.05 | 0.00 | 78 | 1007.4 |
| 20260506141313 | 17 | 239 | 6.4 | 17.7 | 0.00 | 0.05 | 0.00 | 78 | 1007.4 |
| 20260506140849 | 16 | 241 | 8.0 | 14.5 | 0.00 | 0.05 | 0.00 | 77 | 1007.4 |
| 20260506140328 | 16 | 229 | 4.8 | 14.5 | 0.00 | 0.05 | 0.00 | 78 | 1007.6 |
| 20260506135843 | 16 | 247 | 6.4 | 14.5 | 0.00 | 0.05 | 0.00 | 78 | 1007.6 |
| 20260506135318 | 16 | 237 | 9.7 | 14.5 | 0.00 | 0.05 | 0.00 | 78 | 1007.8 |
| 20260506134814 | 16 | 218 | 8.0 | 14.5 | 0.00 | 0.05 | 0.00 | 77 | 1007.9 |
| 20260506134330 | 16 | 244 | 9.7 | 14.5 | 0.00 | 0.05 | 0.00 | 78 | 1007.8 |
| 20260506133826 | 16 | 233 | 3.2 | 17.7 | 0.00 | 0.05 | 0.00 | 78 | 1007.8 |
| 20260506133342 | 16 | 241 | 6.4 | 17.7 | 0.00 | 0.05 | 0.00 | 78 | 1007.9 |
| 20260506132817 | 16 | 252 | 8.0 | 19.3 | 0.00 | 0.05 | 0.00 | 77 | 1007.9 |
| 20260506132315 | 16 | 230 | 9.7 | 19.3 | 0.00 | 0.05 | 0.00 | 77 | 1007.9 |
| 20260506131831 | 16 | 233 | 3.2 | 16.1 | 0.00 | 0.05 | 0.00 | 78 | 1007.8 |
| 20260506131327 | 16 | 261 | 8.0 | 14.5 | 0.00 | 0.05 | 0.00 | 77 | 1007.8 |
| 20260506130823 | 16 | 231 | 8.0 | 14.5 | 0.00 | 0.05 | 0.00 | 78 | 1007.9 |
| 20260506130318 | 16 | 231 | 6.4 | 14.5 | 0.00 | 0.05 | 0.00 | 78 | 1008.1 |
| 20260506125834 | 16 | 233 | 4.8 | 11.3 | 0.00 | 0.05 | 0.00 | 78 | 1008.2 |
| 20260506125349 | 16 | 250 | 6.4 | 16.1 | 0.00 | 0.05 | 0.00 | 78 | 1008.0 |
| 20260506124824 | 16 | 231 | 9.7 | 17.7 | 0.00 | 0.05 | 0.00 | 78 | 1007.8 |
| 20260506124320 | 16 | 241 | 8.0 | 17.7 | 0.00 | 0.05 | 0.00 | 78 | 1007.8 |
| 20260506123820 | 16 | 230 | 3.2 | 12.9 | 0.00 | 0.05 | 0.00 | 79 | 1007.7 |
| 20260506123336 | 16 | 235 | 4.8 | 19.3 | 0.00 | 0.05 | 0.00 | 78 | 1007.9 |
| 20260506122831 | 16 | 231 | 6.4 | 19.3 | 0.00 | 0.05 | 0.00 | 78 | 1007.9 |
| 20260506122327 | 16 | 247 | 12.9 | 19.3 | 0.00 | 0.05 | 0.00 | 77 | 1008.1 |
| 20260506121823 | 16 | 252 | 8.0 | 14.5 | 0.00 | 0.05 | 0.00 | 77 | 1008.0 |
| 20260506121319 | 16 | 235 | 6.4 | 11.3 | 0.00 | 0.05 | 0.00 | 77 | 1008.0 |
| 20260506120816 | 16 | 227 | 4.8 | 9.7 | 0.00 | 0.05 | 0.00 | 78 | 1008.1 |
| 20260506120352 | 16 | 260 | 3.2 | 8.0 | 0.00 | 0.05 | 0.00 | 78 | 1008.1 |
| 20260506115832 | 16 | 251 | 1.6 | 16.1 | 0.00 | 0.05 | 0.00 | 78 | 1008.1 |
| 20260506115328 | 16 | 237 | 1.6 | 16.1 | 0.00 | 0.05 | 0.00 | 78 | 1008.0 |
| 20260506114824 | 16 | 235 | 3.2 | 12.9 | 0.00 | 0.05 | 0.00 | 79 | 1008.3 |
| 20260506114319 | 15 | 249 | 1.6 | 16.1 | 0.00 | 0.05 | 0.00 | 80 | 1008.3 |
| 20260506113816 | 15 | 230 | 1.6 | 16.1 | 0.00 | 0.05 | 0.00 | 79 | 1008.0 |
| 20260506113331 | 15 | 237 | 6.4 | 12.9 | 0.00 | 0.05 | 0.00 | 80 | 1008.2 |
| 20260506112827 | 15 | 240 | 6.4 | 12.9 | 0.00 | 0.05 | 0.00 | 80 | 1008.1 |
| 20260506112327 | 15 | 238 | 3.2 | 9.7 | 0.00 | 0.05 | 0.00 | 80 | 1008.1 |
| 20260506111822 | 15 | 264 | 3.2 | 8.0 | 0.00 | 0.05 | 0.00 | 81 | 1008.3 |
| 20260506111317 | 15 | 234 | 0.0 | 9.7 | 0.00 | 0.05 | 0.00 | 82 | 1008.3 |
| 20260506110832 | 14 | 234 | 1.6 | 9.7 | 0.00 | 0.05 | 0.00 | 83 | 1008.4 |
| 20260506110328 | 13 | 237 | 1.6 | 8.0 | 0.00 | 0.05 | 0.00 | 84 | 1008.4 |
| 20260506105823 | 13 | 233 | 1.6 | 8.0 | 0.00 | 0.05 | 0.00 | 86 | 1008.8 |
| 20260506105318 | 13 | 218 | 0.0 | 3.2 | 0.00 | 0.05 | 0.00 | 86 | 1008.5 |
| 20260506104853 | 13 | 218 | 0.0 | 3.2 | 0.00 | 0.05 | 0.00 | 88 | 1008.5 |
| 20260506104332 | 12 | 218 | 0.0 | 1.6 | 0.00 | 0.05 | 0.00 | 90 | 1008.5 |
| 20260506103827 | 12 | 218 | 0.0 | 1.6 | 0.00 | 0.05 | 0.00 | 91 | 1008.6 |
| 20260506102845 | 11 | 218 | 0.0 | 0.0 | 0.00 | 0.05 | 0.00 | 91 | 1008.3 |
| 20260506102318 | 11 | 218 | 0.0 | 1.6 | 0.00 | 0.05 | 0.00 | 91 | 1008.3 |
| 20260506101812 | 11 | 218 | 0.0 | 0.0 | 0.00 | 0.05 | 0.00 | 91 | 1008.3 |
| 20260506101325 | 11 | 218 | 0.0 | 0.0 | 0.00 | 0.05 | 0.00 | 90 | 1008.2 |
| 20260506100823 | 11 | 218 | 0.0 | 1.6 | 0.00 | 0.05 | 0.00 | 90 | 1008.2 |
| 20260506100314 | 11 | 218 | 0.0 | 1.6 | 0.00 | 0.05 | 0.00 | 89 | 1008.3 |
| 20260506095809 | 11 | 218 | 0.0 | 1.6 | 0.00 | 0.05 | 0.00 | 89 | 1008.0 |
| 20260506095344 | 12 | 218 | 0.0 | 0.0 | 0.00 | 0.05 | 0.00 | 88 | 1007.9 |
| 20260506094819 | 12 | 218 | 0.0 | 0.0 | 0.00 | 0.05 | 0.00 | 88 | 1007.9 |
| 20260506094315 | 12 | 218 | 0.0 | 0.0 | 0.00 | 0.05 | 0.00 | 88 | 1008.1 |
| 20260506093812 | 12 | 218 | 0.0 | 0.0 | 0.00 | 0.05 | 0.00 | 87 | 1008.2 |
| 20260506093327 | 12 | 218 | 0.0 | 1.6 | 0.00 | 0.05 | 0.00 | 86 | 1007.9 |
| 20260506092828 | 12 | 218 | 0.0 | 1.6 | 0.00 | 0.05 | 0.00 | 87 | 1008.0 |
| 20260506092324 | 12 | 218 | 0.0 | 0.0 | 0.00 | 0.05 | 0.00 | 86 | 1008.1 |
| 20260506091821 | 12 | 218 | 0.0 | 0.0 | 0.00 | 0.05 | 0.00 | 86 | 1008.0 |
| 20260506091317 | 12 | 218 | 0.0 | 0.0 | 0.00 | 0.05 | 0.00 | 85 | 1008.1 |
| 20260506090812 | 12 | 218 | 0.0 | 0.0 | 0.00 | 0.05 | 0.00 | 84 | 1008.1 |
| 20260506090328 | 13 | 218 | 0.0 | 0.0 | 0.00 | 0.05 | 0.00 | 83 | 1008.1 |
| 20260506085824 | 13 | 218 | 0.0 | 1.6 | 0.00 | 0.05 | 0.00 | 82 | 1008.0 |
| 20260506085323 | 13 | 218 | 0.0 | 1.6 | 0.00 | 0.05 | 0.00 | 83 | 1008.1 |
| 20260506084820 | 13 | 218 | 0.0 | 3.2 | 0.00 | 0.05 | 0.00 | 82 | 1008.1 |
| 20260506084317 | 13 | 218 | 0.0 | 3.2 | 0.00 | 0.05 | 0.00 | 81 | 1008.0 |
| 20260506083814 | 14 | 218 | 0.0 | 4.8 | 0.00 | 0.05 | 0.00 | 80 | 1008.0 |
| 20260506083350 | 14 | 255 | 1.6 | 3.2 | 0.00 | 0.05 | 0.00 | 79 | 1008.0 |
| 20260506082824 | 15 | 255 | 1.6 | 3.2 | 0.00 | 0.05 | 0.00 | 77 | 1008.1 |
| 20260506082321 | 15 | 254 | 1.6 | 8.0 | 0.00 | 0.05 | 0.00 | 76 | 1008.1 |
| 20260506081837 | 15 | 247 | 1.6 | 6.4 | 0.00 | 0.05 | 0.00 | 76 | 1008.0 |
| 20260506081315 | 15 | 266 | 4.8 | 9.7 | 0.00 | 0.05 | 0.00 | 75 | 1007.8 |
| 20260506080811 | 15 | 264 | 1.6 | 6.4 | 0.00 | 0.05 | 0.00 | 76 | 1008.0 |
| 20260506080327 | 15 | 240 | 1.6 | 6.4 | 0.00 | 0.05 | 0.00 | 76 | 1008.0 |
| 20260506073328 | 15 | 228 | 1.6 | 4.8 | 0.00 | 0.05 | 0.00 | 75 | 1007.9 |
| 20260506072845 | 15 | 262 | 1.6 | 3.2 | 0.00 | 0.05 | 0.00 | 75 | 1008.0 |
| 20260506072320 | 15 | 262 | 0.0 | 3.2 | 0.00 | 0.05 | 0.00 | 75 | 1008.0 |
| 20260506071837 | 15 | 262 | 0.0 | 3.2 | 0.00 | 0.05 | 0.00 | 74 | 1007.9 |
| 20260506071313 | 16 | 262 | 0.0 | 3.2 | 0.00 | 0.05 | 0.00 | 74 | 1007.9 |
| 20260506070829 | 16 | 262 | 0.0 | 3.2 | 0.00 | 0.05 | 0.00 | 73 | 1007.8 |
| 20260506070327 | 16 | 262 | 0.0 | 6.4 | 0.00 | 0.05 | 0.00 | 73 | 1007.7 |
| 20260506062317 | 16 | 241 | 4.8 | 14.5 | 0.00 | 0.05 | 0.00 | 74 | 1007.3 |
| 20260506061815 | 16 | 250 | 6.4 | 11.3 | 0.00 | 0.05 | 0.00 | 74 | 1007.2 |
| 20260506061316 | 16 | 255 | 3.2 | 9.7 | 0.00 | 0.05 | 0.00 | 75 | 1007.3 |
| 20260506060831 | 16 | 261 | 1.6 | 14.5 | 0.00 | 0.05 | 0.00 | 75 | 1007.3 |
| 20260506060326 | 16 | 235 | 6.4 | 14.5 | 0.00 | 0.05 | 0.00 | 75 | 1007.3 |
| 20260506051314 | 16 | 238 | 6.4 | 16.1 | 0.00 | 0.05 | 0.00 | 77 | 1007.5 |